{"data":{"norad_id":66899,"epoch":"2026-09-20T07:06:01.933344Z","epoch_age_seconds":102085,"freshness":"FRESH","line1":"1 66899U 25283X   26263.29585571  .00026949  00000+0  80553-3 0  9992","line2":"2 66899  53.1573 196.3843 0001367  72.1416 287.9736 15.34413661 45696","mean_motion":15.34413661,"eccentricity":0.0001367,"inclination_deg":53.1573,"raan_deg":196.3843,"arg_perigee_deg":72.1416,"mean_anomaly_deg":287.9736,"bstar":0.00080553,"rev_number":4569,"period_min":93.8469225477,"perigee_km":461.72749982703,"apogee_km":463.59777444782,"semimajor_km":6840.7996371374,"source":"CELESTRAK","updated_at":"2026-09-21T09:00:36.053777Z"}}